Location: Guferjoch
(46.7462°N, 8.4506°E)
Time: 00:23:42
(UTC+00:00)

SL-16 R/B - Pass Details

Date: 14 July 2020
Orbit: 842 x 846 km, 71.0° (Epoch: 03 August)

Event Time Altitude Azimuth Distance (km) Brightness Sun altitude
Rises 02:02:42 0° 337° (NNW) 3,418 5.8 -13.7°
Reaches altitude 10° 02:05:24 10° 347° (NNW) 2,479 5.2 -13.4°
Maximum altitude 02:10:34 35° 52° (NE) 1,347 4.0 -12.8°
Drops below altitude 10° 02:15:43 10° 117° (ESE) 2,465 4.8 -12.3°
Sets 02:18:22 0° 127° (SE) 3,396 5.4 -12.0°
